Location: Maiden
(35.5760°N, 81.2120°W)
Time: 11:26:12
(UTC-04:00)

Hubble Space Telescope - Visible Passes

Search period start: 12 June 2021 00:00
Search period end: 22 June 2021 00:00
Orbit: 535 x 539 km, 28.5° (Epoch: 11 June)

Date Brightness Start Highest point End Pass type
(mag) Time Alt. Az. Time Alt. Az. Time Alt. Az.
12 Jun 2.3 22:08:07 10° WSW 22:11:11 20° SSW 22:11:53 19° S visible
13 Jun 2.5 21:57:21 10° WSW 22:00:08 18° SSW 22:01:23 16° S visible
14 Jun 2.8 21:46:41 10° SW 21:49:06 15° SSW 21:50:53 12° S visible
15 Jun 3.0 21:36:13 10° SW 21:38:02 13° SSW 21:39:51 10° S visible
16 Jun 3.2 21:26:28 10° SSW 21:26:58 10° SSW 21:27:28 10° SSW visible
